FW2904 Weather Reports


time (UTC)temp
C
wind
direction
speed
KPH
gust
KPH
rain 1hr
cm
rain 24hr
cm
rain mn
cm
humidity
%
barometer
mb
20260505111947 2 55 4.8 14.5 0.05 0.10 0.10 88 1019.0
20260505111941 2 55 4.8 8.0 0.05 0.10 0.10 88 1018.9
20260505110942 2 55 4.8 14.5 0.05 0.10 0.10 87 1018.9
20260505110443 2 55 3.2 9.7 0.03 0.08 0.08 87 1018.9
20260505101942 3 55 1.6 8.0 0.03 0.05 0.05 87 1018.8
20260505101440 3 55 3.2 9.7 0.05 0.05 0.05 87 1018.8
20260505100948 3 55 3.2 6.4 0.05 0.05 0.05 87 1018.8
20260505100942 3 55 3.2 9.7 0.05 0.05 0.05 87 1018.8
20260505095945 3 55 3.2 9.7 0.05 0.05 0.05 86 1018.8
20260505095939 3 55 3.2 6.4 0.05 0.05 0.05 86 1018.8
20260505094939 3 55 4.8 11.3 0.05 0.05 0.05 86 1018.8
20260505094444 3 56 1.6 6.4 0.03 0.03 0.05 85 1018.9
20260505094440 3 55 3.2 11.3 0.05 0.05 0.05 85 1018.8
20260505093447 3 56 1.6 4.8 0.03 0.03 0.03 84 1018.8
20260505093439 3 56 1.6 4.8 0.03 0.03 0.03 85 1018.8
20260505092940 3 56 1.6 4.8 0.03 0.03 0.03 85 1018.8
20260505091939 3 56 1.6 4.8 0.03 0.03 0.03 84 1018.9
20260505091441 3 56 0.0 4.8 0.00 0.00 0.00 85 1018.8
20260505090945 3 56 0.0 3.2 0.00 0.00 0.00 84 1018.7
20260505090939 3 56 0.0 3.2 0.00 0.00 0.00 85 1018.8
20260505085940 3 56 1.6 3.2 0.00 0.00 0.00 84 1018.8
20260505085440 3 56 1.6 4.8 0.00 0.00 0.00 84 1018.8
20260505084946 3 56 0.0 0.0 0.00 0.00 0.00 84 1018.7
20260505084940 3 56 0.0 4.8 0.00 0.00 0.00 84 1018.7
20260505083939 3 56 1.6 3.2 0.00 0.00 0.00 84 1018.7
20260505083441 3 56 1.6 4.8 0.00 0.00 0.00 83 1018.7
20260505082941 3 56 0.0 4.8 0.00 0.00 0.00 83 1018.6
20260505082439 3 56 0.0 3.2 0.00 0.00 0.00 83 1018.8
20260505081939 3 56 0.0 3.2 0.00 0.00 0.00 82 1018.8
20260505081440 3 56 1.6 3.2 0.00 0.00 0.00 82 1018.9
20260505080939 3 56 1.6 3.2 0.00 0.00 0.00 82 1018.9
20260505080442 3 56 0.0 3.2 0.00 0.00 0.00 82 1018.9
20260505075939 3 56 1.6 3.2 0.00 0.00 0.00 82 1018.8
20260505075439 3 56 1.6 4.8 0.00 0.00 0.00 82 1018.9
20260505074940 3 56 1.6 4.8 0.00 0.00 0.00 82 1018.9
20260505074441 3 56 0.0 3.2 0.00 0.00 0.00 82 1018.9
20260505073940 3 56 1.6 3.2 0.00 0.00 0.00 82 1018.8
20260505073440 3 56 1.6 4.8 0.00 0.00 0.00 82 1018.8
20260505072939 3 56 0.0 4.8 0.00 0.00 0.00 82 1018.8
20260505072440 3 56 1.6 4.8 0.00 0.00 0.00 82 1018.9
20260505071941 3 56 1.6 6.4 0.00 0.00 0.00 82 1018.8
20260505071441 3 56 3.2 6.4 0.00 0.00 0.00 82 1018.8
20260505070939 3 56 4.8 8.0 0.00 0.00 0.00 82 1018.7
20260505070437 3 56 6.4 9.7 0.00 0.00 0.00 82 1018.6
20260505065939 3 56 4.8 9.7 0.00 0.00 0.00 83 1018.7
20260505065438 3 56 4.8 8.0 0.00 0.00 0.00 82 1018.8
20260505064943 3 56 4.8 8.0 0.00 0.00 0.00 82 1018.9
20260505064937 3 56 4.8 8.0 0.00 0.00 0.00 82 1018.8
20260505063937 3 56 4.8 9.7 0.00 0.00 0.00 82 1018.9
20260505063437 3 56 4.8 9.7 0.00 0.00 0.00 82 1018.9
20260505062937 3 56 4.8 9.7 0.00 0.00 0.00 82 1018.8
20260505062438 3 56 4.8 9.7 0.00 0.00 0.00 82 1018.9
20260505061933 3 56 4.8 11.3 0.00 0.00 0.00 82 1018.9
20260505061435 3 56 6.4 11.3 0.00 0.00 0.00 82 1018.9
20260505060935 3 56 6.4 11.3 0.00 0.00 0.00 82 1018.9
20260505060433 3 56 6.4 9.7 0.00 0.00 0.00 82 1018.8
20260505055936 3 56 6.4 11.3 0.00 0.00 0.00 82 1018.8
20260505055435 3 56 6.4 11.3 0.00 0.00 0.00 81 1018.8
20260505054935 3 56 6.4 14.5 0.00 0.00 0.00 81 1018.9
20260505054440 4 56 6.4 14.5 0.00 0.00 0.00 80 1019.0
20260505054434 3 56 6.4 14.5 0.00 0.00 0.00 81 1018.9
20260505053430 4 56 6.4 14.5 0.00 0.00 0.00 80 1019.2
20260505052931 4 56 6.4 14.5 0.00 0.00 0.00 79 1019.2
20260505052429 4 56 6.4 14.5 0.00 0.00 0.00 79 1019.2
20260505051930 4 55 6.4 14.5 0.00 0.00 0.00 78 1019.0
20260505051430 4 55 8.0 14.5 0.00 0.00 0.00 77 1019.2
20260505050930 4 53 9.7 19.3 0.00 0.00 0.00 76 1019.2
20260505050430 4 53 11.3 22.5 0.00 0.00 0.00 75 1019.2
20260505041427 7 68 11.3 19.3 0.00 0.00 0.00 55 1018.7
20260505040929 7 70 11.3 19.3 0.00 0.00 0.00 54 1018.7
20260505040426 7 78 9.7 17.7 0.00 0.00 0.00 54 1018.7
20260505035925 7 82 9.7 17.7 0.00 0.00 0.00 54 1018.7
20260505035425 7 85 11.3 17.7 0.00 0.00 0.00 54 1018.7
20260505034925 7 82 11.3 20.9 0.00 0.00 0.00 55 1018.6
20260505034427 7 77 11.3 20.9 0.00 0.00 0.00 54 1018.6
20260505033925 7 78 11.3 22.5 0.00 0.00 0.00 53 1018.5
20260505033436 7 72 9.7 19.3 0.00 0.00 0.00 53 1018.3
20260505033426 7 76 11.3 22.5 0.00 0.00 0.00 53 1018.6
20260505032927 7 76 11.3 19.3 0.00 0.00 0.00 53 1018.3
20260505031928 7 68 9.7 19.3 0.00 0.00 0.00 52 1018.2
20260505031426 7 59 9.7 19.3 0.00 0.00 0.00 52 1018.2
20260505030927 7 84 9.7 19.3 0.00 0.00 0.00 51 1018.1
20260505030426 7 86 11.3 19.3 0.00 0.00 0.00 52 1018.0
20260505025928 7 85 11.3 19.3 0.00 0.00 0.00 52 1018.0
20260505025427 7 82 9.7 19.3 0.00 0.00 0.00 51 1017.8
20260505024926 7 75 9.7 22.5 0.00 0.00 0.00 51 1017.8
20260505024425 7 82 11.3 22.5 0.00 0.00 0.00 51 1017.8
20260505023933 7 81 11.3 24.1 0.00 0.00 0.00 50 1017.6
20260505023927 7 97 9.7 20.9 0.00 0.00 0.00 51 1017.6
20260505022928 8 65 11.3 24.1 0.00 0.00 0.00 50 1017.6
20260505022427 8 84 12.9 25.7 0.00 0.00 0.00 50 1017.4
20260505021928 8 65 14.5 25.7 0.00 0.00 0.00 50 1017.2
20260505021426 8 76 14.5 27.4 0.00 0.00 0.00 49 1017.2
20260505020927 8 53 12.9 27.4 0.00 0.00 0.00 49 1017.1
20260505020425 8 49 14.5 30.6 0.00 0.00 0.00 49 1016.9
20260505015926 8 55 14.5 30.6 0.00 0.00 0.00 48 1017.1
20260505015427 8 53 14.5 29.0 0.00 0.00 0.00 48 1016.9
20260505014927 8 35 16.1 29.0 0.00 0.00 0.00 47 1016.9
20260505014427 9 49 16.1 27.4 0.00 0.00 0.00 47 1016.7
20260505013926 9 51 16.1 30.6 0.00 0.00 0.00 48 1016.7
20260505013425 9 42 16.1 30.6 0.00 0.00 0.00 47 1016.5
20260505012925 10 56 14.5 29.0 0.00 0.00 0.00 47 1016.4
20260505012425 10 43 16.1 30.6 0.00 0.00 0.00 46 1016.2
20260505011927 10 40 16.1 30.6 0.00 0.00 0.00 46 1016.2
20260505011426 10 39 14.5 29.0 0.00 0.00 0.00 45 1016.1
20260505010933 11 47 14.5 30.6 0.00 0.00 0.00 45 1015.9
20260505010927 11 49 14.5 27.4 0.00 0.00 0.00 45 1016.1
20260505005926 11 55 14.5 30.6 0.00 0.00 0.00 44 1015.8
20260505005426 11 53 14.5 30.6 0.00 0.00 0.00 45 1015.9
20260505004927 11 41 14.5 30.6 0.00 0.00 0.00 44 1015.7
20260505004425 11 42 16.1 37.0 0.00 0.00 0.00 43 1015.5
20260505003931 12 53 19.3 40.2 0.00 0.00 0.00 42 1015.5
20260505003925 12 43 19.3 40.2 0.00 0.00 0.00 43 1015.5
20260505002927 12 74 14.5 29.0 0.00 0.00 0.00 43 1015.5
20260505002425 12 54 14.5 29.0 0.00 0.00 0.00 44 1015.5
20260505001927 12 44 16.1 29.0 0.00 0.00 0.00 43 1015.5
20260505001425 12 52 14.5 29.0 0.00 0.00 0.00 43 1015.7
20260505000925 12 59 14.5 27.4 0.00 0.00 0.00 42 1015.7
20260505000428 12 59 12.9 25.7 0.00 0.00 0.00 43 1015.4
20260504235924 12 51 11.3 29.0 0.00 0.00 0.00 42 1015.4
20260504235425 13 38 11.3 29.0 0.00 0.00 0.00 41 1015.4
20260504234930 13 44 11.3 25.7 0.00 0.00 0.00 40 1015.3
20260504234924 13 56 9.7 24.1 0.00 0.00 0.00 40 1015.4
20260504234559 14 36 11.3 25.7 0.00 0.00 0.00 40 1015.4
20260504234101 14 51 8.0 22.5 0.00 0.00 0.00 40 1015.4
20260504232923 13 30 8.0 24.1 0.00 0.00 0.00 40 1015.3
20260504232431 14 28 11.3 22.5 0.00 0.00 0.00 39 1015.1
20260504232425 13 51 9.7 24.1 0.00 0.00 0.00 40 1015.1
20260504231423 15 26 11.3 22.5 0.00 0.00 0.00 37 1015.0
20260504230925 16 49 11.3 22.5 0.00 0.00 0.00 37 1014.8
20260504230426 15 31 9.7 29.0 0.00 0.00 0.00 36 1014.7
20260504225921 16 48 9.7 29.0 0.00 0.00 0.00 36 1014.8
20260504225421 16 34 9.7 25.7 0.00 0.00 0.00 36 1015.0
20260504224921 16 46 8.0 22.5 0.00 0.00 0.00 37 1014.7
20260504224421 15 45 9.7 24.1 0.00 0.00 0.00 37 1014.7
20260504223923 15 28 9.7 24.1 0.00 0.00 0.00 36 1014.8
20260504223424 16 51 11.3 22.5 0.00 0.00 0.00 37 1014.7
20260504222921 16 47 12.9 29.0 0.00 0.00 0.00 36 1014.6
20260504222421 16 65 12.9 29.0 0.00 0.00 0.00 36 1014.6
20260504221922 16 54 11.3 20.9 0.00 0.00 0.00 36 1014.6
20260504221423 16 91 9.7 19.3 0.00 0.00 0.00 37 1014.6
20260504220928 16 55 11.3 19.3 0.00 0.00 0.00 37 1014.7
20260504220921 16 62 9.7 19.3 0.00 0.00 0.00 36 1014.7
20260504215922 16 45 11.3 19.3 0.00 0.00 0.00 37 1014.6
20260504215429 15 49 11.3 22.5 0.00 0.00 0.00 37 1014.7
20260504215423 16 63 11.3 22.5 0.00 0.00 0.00 37 1014.7
20260504215055 15 61 9.7 22.5 0.00 0.00 0.00 38 1014.7
20260504213920 16 36 9.7 25.7 0.00 0.00 0.00 36 1014.8
20260504213419 16 42 9.7 25.7 0.00 0.00 0.00 35 1015.0
20260504212919 16 57 8.0 19.3 0.00 0.00 0.00 37 1015.0
20260504212419 16 58 9.7 22.5 0.00 0.00 0.00 36 1015.1
20260504211919 15 61 9.7 22.5 0.00 0.00 0.00 40 1015.1
20260504211421 16 49 6.4 22.5 0.00 0.00 0.00 37 1015.2
20260504210919 16 45 8.0 19.3 0.00 0.00 0.00 36 1015.3
20260504210419 16 45 8.0 22.5 0.00 0.00 0.00 38 1015.3
20260504205920 15 20 6.4 22.5 0.00 0.00 0.00 39 1015.4
20260504205419 15 51 8.0 25.7 0.00 0.00 0.00 38 1015.3
20260504204919 15 61 11.3 25.7 0.00 0.00 0.00 37 1015.5
20260504204417 16 51 8.0 20.9 0.00 0.00 0.00 37 1015.5
20260504203917 16 55 6.4 16.1 0.00 0.00 0.00 38 1015.5
20260504203425 16 54 8.0 17.7 0.00 0.00 0.00 36 1015.7
20260504203419 16 54 6.4 16.1 0.00 0.00 0.00 36 1015.7
20260504203054 16 36 9.7 20.9 0.00 0.00 0.00 38 1015.5
20260504201919 16 41 9.7 20.9 0.00 0.00 0.00 38 1015.7
20260504201417 16 44 8.0 24.1 0.00 0.00 0.00 37 1015.8
20260504200918 16 44 8.0 24.1 0.00 0.00 0.00 37 1015.7
20260504200414 15 39 8.0 17.7 0.00 0.00 0.00 39 1015.8
20260504195915 15 25 9.7 20.9 0.00 0.00 0.00 36 1015.8
20260504195415 15 51 8.0 20.9 0.00 0.00 0.00 39 1015.8
20260504194917 15 81 9.7 20.9 0.00 0.00 0.00 40 1015.8
20260504194416 15 84 8.0 20.9 0.00 0.00 0.00 40 1015.8
20260504193916 15 55 8.0 24.1 0.00 0.00 0.00 39 1016.1
20260504193416 14 55 9.7 24.1 0.00 0.00 0.00 42 1016.4
20260504192921 14 51 11.3 27.4 0.00 0.00 0.00 38 1016.2
20260504192915 14 55 9.7 20.9 0.00 0.00 0.00 40 1016.4
20260504191920 15 49 12.9 27.4 0.00 0.00 0.00 37 1016.4
20260504191914 15 75 9.7 20.9 0.00 0.00 0.00 40 1016.5
20260504190915 15 59 9.7 24.1 0.00 0.00 0.00 38 1016.4
20260504190412 15 44 8.0 24.1 0.00 0.00 0.00 39 1016.5
20260504185914 15 55 9.7 22.5 0.00 0.00 0.00 38 1016.4
20260504185415 15 82 9.7 29.0 0.00 0.00 0.00 39 1016.5
20260504184913 15 46 9.7 29.0 0.00 0.00 0.00 37 1016.6
20260504184413 15 51 8.0 27.4 0.00 0.00 0.00 39 1016.6
20260504183915 15 42 6.4 22.5 0.00 0.00 0.00 37 1016.6
20260504183419 15 64 9.7 24.1 0.00 0.00 0.00 39 1016.9
20260504183413 15 64 8.0 24.1 0.00 0.00 0.00 38 1016.8
20260504182413 15 98 9.7 17.7 0.00 0.00 0.00 38 1016.8
20260504181913 15 107 11.3 19.3 0.00 0.00 0.00 38 1016.9
20260504181415 15 111 9.7 19.3 0.00 0.00 0.00 38 1016.9
20260504180913 15 108 9.7 22.5 0.00 0.00 0.00 39 1017.1
20260504180415 15 100 11.3 25.7 0.00 0.00 0.00 39 1017.1
20260504175918 14 87 9.7 17.7 0.00 0.00 0.00 42 1017.3
20260504175912 15 97 9.7 25.7 0.00 0.00 0.00 40 1017.2
20260504174911 13 82 9.7 19.3 0.00 0.00 0.00 43 1017.3
20260504174418 13 89 9.7 20.9 0.00 0.00 0.00 41 1017.4
20260504174412 13 81 8.0 19.3 0.00 0.00 0.00 40 1017.4
20260504173410 13 86 11.3 20.9 0.00 0.00 0.00 44 1017.4
20260504172912 13 96 8.0 17.7 0.00 0.00 0.00 43 1017.4
20260504172411 13 83 8.0 19.3 0.00 0.00 0.00 43 1017.4
20260504171911 13 84 8.0 19.3 0.00 0.00 0.00 43 1017.4
20260504171410 13 69 9.7 20.9 0.00 0.00 0.00 43 1017.5
20260504170910 13 39 11.3 20.9 0.00 0.00 0.00 42 1017.5
20260504170409 13 67 9.7 19.3 0.00 0.00 0.00 43 1017.5
20260504160406 11 37 9.7 20.9 0.00 0.00 0.00 47 1018.0
20260504150908 10 52 14.5 32.2 0.00 0.00 0.00 49 1017.8
20260504150406 10 53 14.5 30.6 0.00 0.00 0.00 50 1017.9
20260504140909 10 39 12.9 27.4 0.00 0.00 0.00 52 1016.6
20260504140406 10 30 14.5 33.8 0.00 0.00 0.00 51 1016.2